Погода в Олешне

Украина / Черниговская область     51°57′14″N   31°09′04″E
темп.,
°C
ветер,
м/с
пор.,
м/с
влажн.,
%
обл.,
%
осадки,
мм/ч
давл.,
гПа
погр.,
м
8 марта, пн
пн823:000з6138799 0.1 10071171
02:00−2сз3892100 1.6 1006624
05:00−3зюз4994100 0.1 1006491
08:00−3зсз599182 0.3 1007604
11:00−1зсз577683 0.1 1009967
14:00−1зсз577291 0.4 10081189
17:00−2зсз4876100 0.4 1010627
20:00−5ссз4108193 0.4 1013524
9 марта, вт
вт923:00−7сз38880 0.0 1015305
02:00−7сз379523 0.0 1017296
05:00−9ссз379378 0.0 1018321
08:00−9ссз478449 0.0 1020476
11:00−5ссз46670 0.0 1021869
14:00−4ссз45649 0.0 10221221
17:00−5ссз357699 0.1 1023794
20:00−8ссз229171 0.1 102556
10 марта, ср
ср1023:00−9с11880 0.0 102621
02:00−10ссв00872 0.0 102721
05:00−10ю128742 0.0 102721
08:00−8ююз238054 0.0 1028141
11:00−3юз236223 0.0 1027666
14:00−1зюз235711 0.0 1027987
17:00−3юз12710 0.0 102667
20:00−7ююз228912 0.0 102761
11 марта, чт
чт1123:00−8ююз228856 0.0 102851
02:00−8ю118662 0.0 102921
05:00−8юв228592 0.0 102980
08:00−8юв248396 0.0 1030219
11:00−4юв347170 0.0 1030461
14:00−3ююв356461 0.0 1029747
17:00−4ююв367316 0.0 1027472
20:00−7юв39858 0.0 1027273
12 марта, пт
пт1223:00−8ююв4108761 0.0 1027315
02:00−8ююв5118281 0.0 1025357
05:00−7ююв51475100 0.0 1023447
08:00−5ююв71575100 0.0 1022578
11:00−2ю81571100 0.0 1020941
14:00−2ю101789100 0.7 10191119
17:00−2ю91793100 2.1 10171198
20:00−1ю91694100 4.8 10161050